Location: Krasnoyarskiy Pitomnik
(51.1333°N, 71.6167°E)
Time: 15:16:07
(UTC+00:00)

ARIANE 5 R/B - Pass Details

Date: 22 October 2021
Orbit: 748 x 795 km, 98.7° (Epoch: 26 November)

Event Time Altitude Azimuth Distance (km) Brightness Sun altitude
Rises 21:51:15 0° 22° (NNE) 3,209 6.4 -36.9°
Reaches altitude 10° 21:53:49 10° 34° (NNE) 2,280 5.6 -36.6°
Enters shadow 21:57:11 28° 73° (ENE) 1,405 4.3 -36.2°
